Lille, France

9:18 PM CEST on April 25, 2017 (GMT +0200)
Lesquin

Weather History for LFQQ - October, 2012

Change the Weather History Date:

Friday, October 5, 2012

  Actual Average Record
Temperature  
Mean Temperature 57 °F -  
Max Temperature 65 °F 56 °F 68 °F (2001)
Min Temperature 49 °F 45 °F 41 °F (2003)
Degree Days  
Heating Degree Days 8    
Growing Degree Days 7 (Base 50)    
Moisture  
Dew Point 54 °F    
Average Humidity 87    
Maximum Humidity 94    
Minimum Humidity 75    
Precipitation  
Precipitation 0.01 in - - ()
Sea Level Pressure  
Sea Level Pressure 29.81 in    
Wind  
Wind Speed 13 mph ()    
Max Wind Speed 26 mph    
Max Gust Speed 41 mph    
Visibility 6.4 miles    
Events Rain    
Averages and records for this station are not official NWS values.
T = Trace of Precipitation, MM = Missing Value Source: Averaged Metar Reports

Daily Weather History Graph

Daily Weather History Graph

Search for Another Location

Airport or City:

Trip Planner

Search our weather history database for the weather conditions in past years. The results will help you decide how hot, cold, wet, or windy it might be!

Date:

Astronomy

Oct. 05, 2012 Rise Set
Actual Time 7:54 AM CEST 7:16 PM CEST
Civil Twilight 7:21 AM CEST 7:48 PM CEST
Nautical Twilight 6:44 AM CEST 8:26 PM CEST
Astronomical Twilight 6:05 AM CEST 9:05 PM CEST
Moon 9:57 PM CEST (10/5) 1:19 PM CEST (10/5)
Length of Visible Light 12h 26m
Length of Day
11h 21m
Waning Gibbous, 76% of the Moon is Illuminated
Oct 5
Waning Gibbous
Oct 8
Last Quarter
Oct 15
New
Oct 22
First Quarter
Oct 29
Full

Hourly Weather History & Observations

Time (CEST) Temp. Dew Point Humidity Pressure Visibility Wind Dir Wind Speed Gust Speed Precip Events Conditions
12:00 AM 51.8 °F 46.4 °F 82% 29.92 in - South 6.9 mph - N/A   Clear
12:30 AM 51.8 °F 46.4 °F 82% 29.92 in - South 6.9 mph - N/A   Clear
1:00 AM 51.8 °F 46.4 °F 82% 29.89 in - South 6.9 mph - N/A   Clear
2:00 AM 52 °F 46 °F 75% 29.87 in 25 mi South 10.4 mph - -   Mostly Cloudy
2:00 AM 51.8 °F 46.4 °F 82% 29.86 in 6.2 mi South 10.4 mph - N/A   Mostly Cloudy
2:30 AM 51.8 °F 46.4 °F 82% 29.86 in 6.2 mi South 10.4 mph - N/A   Overcast
3:00 AM 53.6 °F 48.2 °F 82% 29.83 in 6.2 mi South 12.7 mph - N/A Rain Light Rain
3:30 AM 53.6 °F 50.0 °F 88% 29.83 in 6.2 mi SSW 15.0 mph - N/A   Overcast
4:00 AM 55.4 °F 50.0 °F 82% 29.80 in 6.2 mi SSW 13.8 mph - N/A   Overcast
4:30 AM 55.4 °F 51.8 °F 88% 29.80 in 6.2 mi SSW 17.3 mph - N/A   Overcast
5:00 AM 55.4 °F 51.8 °F 88% 29.77 in 6.2 mi SSW 19.6 mph - N/A   Overcast
5:30 AM 55.4 °F 53.6 °F 94% 29.74 in 6.2 mi SSW 20.7 mph - N/A   Overcast
6:00 AM 57.2 °F 53.6 °F 88% 29.74 in 6.2 mi SSW 23.0 mph - N/A Rain Light Rain
6:30 AM 57.2 °F 53.6 °F 88% 29.74 in 6.2 mi SSW 19.6 mph - N/A   Mostly Cloudy
7:00 AM 59.0 °F 53.6 °F 82% 29.71 in 6.2 mi SSW 24.2 mph 41.4 mph N/A Rain Light Rain
7:30 AM 59.0 °F 53.6 °F 82% 29.71 in 6.2 mi SSW 23.0 mph - N/A   Mostly Cloudy
8:00 AM 59 °F 54 °F 80% 29.73 in 19 mi SSW 21.9 mph - - Rain Light Rain
8:00 AM 59.0 °F 53.6 °F 82% 29.71 in 6.2 mi SSW 21.9 mph - N/A   Mostly Cloudy
8:30 AM 59.0 °F 55.4 °F 88% 29.71 in 6.2 mi SSW 26.5 mph - N/A   Mostly Cloudy
9:00 AM 60.8 °F 55.4 °F 82% 29.71 in 6.2 mi SW 21.9 mph - N/A   Mostly Cloudy
9:30 AM 60.8 °F 55.4 °F 82% 29.71 in 6.2 mi SW 19.6 mph - N/A   Mostly Cloudy
10:00 AM 60.8 °F 55.4 °F 82% 29.74 in 6.2 mi SW 20.7 mph - N/A   Mostly Cloudy
10:30 AM 62.6 °F 55.4 °F 77% 29.74 in 6.2 mi SW 21.9 mph - N/A   Mostly Cloudy
11:00 AM 62.6 °F 57.2 °F 82% 29.74 in 6.2 mi SW 23.0 mph 34.5 mph N/A   Mostly Cloudy
11:30 AM 62.6 °F 57.2 °F 82% 29.77 in 6.2 mi SW 21.9 mph - N/A   Mostly Cloudy
12:00 PM 62.6 °F 57.2 °F 82% 29.77 in 6.2 mi WSW 21.9 mph - N/A   Mostly Cloudy
12:30 PM 64.4 °F 57.2 °F 77% 29.77 in 6.2 mi WSW 25.3 mph - N/A   Mostly Cloudy
1:00 PM 64.4 °F 57.2 °F 77% 29.80 in 6.2 mi WSW 23.0 mph 35.7 mph N/A   Mostly Cloudy
1:30 PM 62.6 °F 59.0 °F 88% 29.80 in 6.2 mi West 15.0 mph - N/A Rain Light Rain
2:00 PM 61 °F 58 °F 88% 29.82 in 6 mi WNW 13.8 mph - - Rain Light Rain
2:00 PM 60.8 °F 59.0 °F 94% 29.80 in 6.2 mi WNW 13.8 mph - N/A Rain Light Rain
2:30 PM 60.8 °F 59.0 °F 94% 29.83 in 6.2 mi WNW 13.8 mph - N/A   Mostly Cloudy
3:00 PM 59.0 °F 57.2 °F 94% 29.83 in 2.5 mi WNW 17.3 mph - N/A Rain Light Rain
3:30 PM 60.8 °F 59.0 °F 94% 29.83 in 6.2 mi West 17.3 mph - N/A   Scattered Clouds
4:00 PM 60.8 °F 57.2 °F 88% 29.86 in 6.2 mi West 15.0 mph - N/A   Mostly Cloudy
4:30 PM 59.0 °F 57.2 °F 94% 29.86 in 6.2 mi West 13.8 mph - N/A   Mostly Cloudy
5:00 PM 59.0 °F 57.2 °F 94% 29.86 in 6.2 mi West 17.3 mph - N/A   Mostly Cloudy
5:30 PM 59.0 °F 55.4 °F 88% 29.86 in 6.2 mi West 15.0 mph - N/A   Mostly Cloudy
7:15 PM 57.2 °F 55.4 °F 94% 29.86 in 6.2 mi WSW 8.1 mph - N/A   Mostly Cloudy
7:34 PM 57.2 °F 55.4 °F 94% - 6.2 mi WSW 5.8 mph - N/A   Mostly Cloudy
8:00 PM 58 °F 56 °F 91%  in 31 mi SW 5.8 mph - -   Partly Cloudy
8:00 PM 57.2 °F 55.4 °F 94% - 6.2 mi SW 4.6 mph - N/A   Mostly Cloudy
8:30 PM 59.0 °F 57.2 °F 94% 29.86 in 6.2 mi WSW 9.2 mph - N/A   Mostly Cloudy
9:00 PM 59.0 °F 57.2 °F 94% 29.86 in - West 11.5 mph - N/A   Clear
9:30 PM 59.0 °F 57.2 °F 94% 29.86 in - WSW 9.2 mph - N/A   Clear
10:00 PM 59.0 °F 57.2 °F 94% 29.86 in 6.2 mi WSW 5.8 mph - N/A   Mostly Cloudy
10:30 PM 59.0 °F 57.2 °F 94% - - SW 6.9 mph - N/A   Clear
11:00 PM 59.0 °F 57.2 °F 94% 29.86 in 6.2 mi SW 6.9 mph - N/A   Mostly Cloudy
11:30 PM 59.0 °F 57.2 °F 94% 29.86 in 6.2 mi SSW 8.1 mph - N/A   Mostly Cloudy